When you browse on this site, cookies collect data to enhance your experience and personalize the content and advertising you see.
Visit our Privacy Policy to learn more. By continuing to use the site, you agree to this use of cookies and data.
  • In Sweden
  • List of Countries
  • For 7 days
  • Water Temperature
  • Weather Map
  • Weather Widgets
  • user-avatar
    Login

    Hourly Weather Ruchkino

    Today, 22 January, Wednesday

    Time Temperature Precipitation Wind Pressure Humidity
    00:00 0°C° 0 mm 5 mps 743 mmHg 69%
    01:00 0°C° 0 mm 5 mps 743 mmHg 70%
    02:00 0°C° 0 mm 5 mps 743 mmHg 71%
    03:00 -1°C° 0 mm 5 mps 741 mmHg 74%
    04:00 -1°C° 0 mm 5 mps 740 mmHg 77%
    05:00 -1°C° 0 mm 4 mps 739 mmHg 80%
    06:00 -1°C° 0.1 mm 5 mps 739 mmHg 85%
    07:00 -1°C° 0.1 mm 5 mps 738 mmHg 90%
    08:00 -2°C° 0.1 mm 6 mps 738 mmHg 95%
    09:00 -2°C° 0.3 mm 6 mps 738 mmHg 87%
    10:00 -2°C° 0.3 mm 6 mps 738 mmHg 79%
    11:00 -1°C° 0.3 mm 6 mps 738 mmHg 71%
    12:00 -2°C° 0.2 mm 6 mps 738 mmHg 69%
    13:00 -2°C° 0.2 mm 6 mps 739 mmHg 67%
    14:00 -2°C° 0.2 mm 6 mps 739 mmHg 64%
    15:00 -1°C° 0 mm 5 mps 739 mmHg 68%
    16:00 -2°C° 0 mm 5 mps 740 mmHg 72%
    17:00 -2°C° 0 mm 5 mps 740 mmHg 76%
    18:00 -4°C° 0 mm 5 mps 741 mmHg 76%
    19:00 -4°C° 0 mm 5 mps 742 mmHg 76%
    20:00 -4°C° 0 mm 5 mps 743 mmHg 76%
    21:00 -4°C° 0 mm 6 mps 743 mmHg 73%
    22:00 -4°C° 0 mm 6 mps 744 mmHg 69%
    23:00 -4°C° 0 mm 6 mps 744 mmHg 66%

    Tomorrow, 23 January, Thursday

    Time Temperature Precipitation Wind Pressure Humidity
    00:00 -5°C° 0 mm 6 mps 745 mmHg 65%
    01:00 -5°C° 0 mm 5 mps 746 mmHg 65%
    02:00 -5°C° 0 mm 5 mps 747 mmHg 64%
    03:00 -5°C° 0 mm 5 mps 747 mmHg 63%
    04:00 -5°C° 0 mm 5 mps 747 mmHg 63%
    05:00 -5°C° 0 mm 5 mps 748 mmHg 62%
    06:00 -4°C° 0 mm 4 mps 748 mmHg 64%
    07:00 -4°C° 0 mm 3 mps 749 mmHg 65%
    08:00 -4°C° 0 mm 3 mps 749 mmHg 66%
    09:00 -4°C° 0 mm 3 mps 749 mmHg 66%
    10:00 -3°C° 0 mm 4 mps 750 mmHg 66%
    11:00 -3°C° 0 mm 4 mps 750 mmHg 65%
    12:00 -3°C° 0 mm 4 mps 750 mmHg 64%
    13:00 -2°C° 0 mm 4 mps 750 mmHg 63%
    14:00 -2°C° 0 mm 4 mps 750 mmHg 62%
    15:00 -2°C° 0 mm 4 mps 749 mmHg 64%
    16:00 -2°C° 0 mm 3 mps 749 mmHg 66%
    17:00 -2°C° 0 mm 3 mps 749 mmHg 68%
    18:00 -2°C° 0 mm 3 mps 749 mmHg 72%
    19:00 -2°C° 0 mm 3 mps 749 mmHg 75%
    20:00 -1°C° 0 mm 3 mps 749 mmHg 78%
    21:00 -1°C° 0 mm 3 mps 748 mmHg 80%
    22:00 -2°C° 0 mm 3 mps 747 mmHg 82%
    23:00 -2°C° 0 mm 3 mps 747 mmHg 84%

    Day after tomorrow, 24 January, Friday

    Time Temperature Precipitation Wind Pressure Humidity
    00:00 -2°C° 0 mm 4 mps 746 mmHg 83%
    01:00 -2°C° 0 mm 4 mps 745 mmHg 83%
    02:00 -2°C° 0 mm 4 mps 745 mmHg 82%
    03:00 -1°C° 0.1 mm 4 mps 744 mmHg 86%
    04:00 -1°C° 0.1 mm 4 mps 743 mmHg 89%
    05:00 0°C° 0.1 mm 4 mps 742 mmHg 93%
    06:00 +1°C° 0.1 mm 4 mps 742 mmHg 93%
    07:00 +1°C° 0.1 mm 4 mps 741 mmHg 93%
    08:00 +3°C° 0.1 mm 4 mps 741 mmHg 93%
    09:00 +3°C° 0 mm 4 mps 741 mmHg 93%
    10:00 +3°C° 0 mm 4 mps 741 mmHg 92%
    11:00 +3°C° 0 mm 4 mps 740 mmHg 92%
    12:00 +3°C° 0 mm 4 mps 740 mmHg 91%
    13:00 +2°C° 0 mm 5 mps 740 mmHg 90%
    14:00 +3°C° 0 mm 5 mps 740 mmHg 89%
    15:00 +3°C° 0 mm 4 mps 740 mmHg 89%
    16:00 +3°C° 0 mm 4 mps 740 mmHg 90%
    17:00 +3°C° 0 mm 4 mps 740 mmHg 90%
    18:00 +3°C° 0.1 mm 4 mps 740 mmHg 91%
    19:00 +3°C° 0.1 mm 4 mps 740 mmHg 92%
    20:00 +3°C° 0.1 mm 4 mps 740 mmHg 93%
    21:00 +3°C° 0.1 mm 4 mps 740 mmHg 93%
    22:00 +3°C° 0.1 mm 4 mps 739 mmHg 93%
    23:00 +3°C° 0.1 mm 4 mps 739 mmHg 93%

    25 January, Saturday

    Time Temperature Precipitation Wind Pressure Humidity
    00:00 +3°C° 0.1 mm 4 mps 739 mmHg 92%
    01:00 +3°C° 0.1 mm 4 mps 739 mmHg 91%
    02:00 +3°C° 0.1 mm 4 mps 738 mmHg 90%
    03:00 +1°C° 0 mm 4 mps 738 mmHg 89%
    04:00 +1°C° 0 mm 4 mps 738 mmHg 89%
    05:00 0°C° 0 mm 4 mps 738 mmHg 88%
    06:00 0°C° 0 mm 4 mps 738 mmHg 88%
    07:00 0°C° 0 mm 3 mps 738 mmHg 89%
    08:00 0°C° 0 mm 3 mps 739 mmHg 89%
    09:00 -1°C° 0 mm 4 mps 739 mmHg 86%
    10:00 0°C° 0 mm 5 mps 739 mmHg 82%
    11:00 0°C° 0 mm 5 mps 739 mmHg 79%
    12:00 +1°C° 0 mm 5 mps 739 mmHg 73%
    13:00 +1°C° 0 mm 6 mps 739 mmHg 66%
    14:00 +2°C° 0 mm 6 mps 739 mmHg 60%
    15:00 +1°C° 0 mm 6 mps 740 mmHg 63%
    16:00 +1°C° 0 mm 6 mps 740 mmHg 66%
    17:00 -1°C° 0 mm 6 mps 741 mmHg 68%
    18:00 -1°C° 0 mm 5 mps 741 mmHg 68%
    19:00 -1°C° 0 mm 5 mps 742 mmHg 67%
    20:00 -2°C° 0 mm 5 mps 743 mmHg 67%
    21:00 -3°C° 0 mm 4 mps 743 mmHg 67%
    22:00 -3°C° 0 mm 4 mps 744 mmHg 67%
    23:00 -3°C° 0 mm 4 mps 745 mmHg 67%

    26 January, Sunday

    Time Temperature Precipitation Wind Pressure Humidity
    00:00 -3°C° 0 mm 4 mps 745 mmHg 69%
    01:00 -2°C° 0 mm 3 mps 746 mmHg 70%
    02:00 -2°C° 0 mm 3 mps 746 mmHg 72%
    03:00 -2°C° 0 mm 3 mps 747 mmHg 73%
    04:00 -2°C° 0 mm 3 mps 747 mmHg 74%
    05:00 -2°C° 0 mm 3 mps 747 mmHg 74%
    06:00 -2°C° 0 mm 3 mps 748 mmHg 75%
    07:00 -2°C° 0 mm 2 mps 748 mmHg 76%
    08:00 -2°C° 0 mm 2 mps 748 mmHg 76%
    09:00 -2°C° 0 mm 2 mps 749 mmHg 75%
    10:00 -1°C° 0 mm 2 mps 749 mmHg 74%
    11:00 +1°C° 0 mm 2 mps 749 mmHg 72%
    12:00 +1°C° 0 mm 2 mps 749 mmHg 72%
    13:00 +1°C° 0 mm 3 mps 749 mmHg 72%
    14:00 +1°C° 0 mm 3 mps 749 mmHg 72%
    15:00 +1°C° 0 mm 3 mps 749 mmHg 78%
    16:00 0°C° 0 mm 3 mps 749 mmHg 84%
    17:00 0°C° 0 mm 3 mps 749 mmHg 90%
    18:00 0°C° 0 mm 3 mps 749 mmHg 90%
    19:00 0°C° 0 mm 3 mps 749 mmHg 90%
    20:00 0°C° 0 mm 3 mps 748 mmHg 90%
    21:00 0°C° 0 mm 3 mps 748 mmHg 91%
    22:00 0°C° 0 mm 3 mps 748 mmHg 91%
    23:00 0°C° 0 mm 3 mps 748 mmHg 92%

    27 January, Monday

    Time Temperature Precipitation Wind Pressure Humidity
    00:00 +1°C° 0.2 mm 3 mps 748 mmHg 93%
    01:00 +1°C° 0.2 mm 3 mps 748 mmHg 94%
    02:00 +1°C° 0.2 mm 3 mps 747 mmHg 95%
    03:00 +1°C° 0.1 mm 3 mps 747 mmHg 95%
    04:00 +1°C° 0.1 mm 3 mps 747 mmHg 95%
    05:00 +1°C° 0.1 mm 3 mps 746 mmHg 95%
    06:00 +1°C° 0.1 mm 3 mps 746 mmHg 95%
    07:00 +1°C° 0.1 mm 3 mps 746 mmHg 95%
    08:00 +1°C° 0.1 mm 3 mps 746 mmHg 95%
    09:00 0°C° 0 mm 4 mps 746 mmHg 93%
    10:00 0°C° 0 mm 4 mps 745 mmHg 90%
    11:00 0°C° 0 mm 4 mps 745 mmHg 87%
    12:00 0°C° 0 mm 5 mps 745 mmHg 86%
    13:00 0°C° 0 mm 5 mps 744 mmHg 85%
    14:00 0°C° 0 mm 5 mps 744 mmHg 84%
    15:00 0°C° 0 mm 5 mps 744 mmHg 86%
    16:00 0°C° 0 mm 5 mps 744 mmHg 87%
    17:00 0°C° 0 mm 5 mps 744 mmHg 88%
    18:00 0°C° 0 mm 4 mps 744 mmHg 89%
    19:00 0°C° 0 mm 4 mps 744 mmHg 89%
    20:00 +1°C° 0 mm 4 mps 744 mmHg 89%
    21:00 +1°C° 0 mm 4 mps 744 mmHg 89%
    22:00 +1°C° 0 mm 4 mps 744 mmHg 88%
    23:00 +1°C° 0 mm 4 mps 744 mmHg 88%
    Show more